[[{"header":{"parameterUnit":"m.s-1","parameterCategory":1,"la1":30.2991,"la2":30.254,"lo1":-89.0895,"lo2":-89.0444,"dy":0.0017,"dx":0.0017,"nx":28,"ny":28,"refTime":"2025-02-24T03:00:00:Z","depth":0,"parameterNumber":2,"parameterNumberName":"U-component_of_WINDS"},"data":[0,0,0,0,0,0,0,0,0,0,0,0,0,0,0,0,0,0,0,0,0,0,0,0,0,0,0,0,0,0,0,0,0,0,0,0,0,0,0,0,0,0,0,0,0,0,0,0,0,0,0,0,0,0,0,0,0,0,1.2055,1.2055,0,1.2064,1.2064,1.2064,1.2074,1.2074,1.2074,1.2075,1.2084,1.2084,1.2084,0,0,0,0,0,0,0,0,0,0,0,0,0,1.2048,1.2048,1.2055,1.2055,1.2055,1.2064,1.2064,1.2064,1.2074,1.2074,1.2074,1.2075,1.2084,1.2084,1.2084,0,0,0,0,0,0,0,0,0,0,0,0,0,1.2053,1.2048,1.2055,1.2061,1.2062,1.2064,1.2064,1.2064,1.2074,1.2074,1.2074,1.2075,1.2084,1.2084,1.2084,1.2081,0,0,1.2085,1.2085,0,0,0,0,0,0,0,0,1.2053,1.2053,1.206,1.2061,1.2062,1.2068,1.2065,1.207,1.2074,1.2069,1.2075,1.2075,1.2079,1.2079,1.208,1.2082,1.2082,1.2085,1.2085,1.2085,1.2085,0,0,0,0,0,0,0,1.2052,1.2053,1.2059,1.206,1.2061,1.2064,1.2065,1.2066,1.2073,1.207,1.2071,1.2071,1.2079,1.208,1.2081,1.2082,1.2085,1.2085,1.2085,1.2085,1.2082,1.2082,0,0,0,0,0,0,1.2051,1.2053,1.2058,1.2059,1.2058,1.2064,1.2065,1.2066,1.2073,1.2074,1.2071,1.2072,1.208,1.2081,1.2081,1.2078,1.2085,1.2085,1.2085,1.2082,1.2082,1.2082,0,0,0,0,0,0,1.2051,1.2051,1.2058,1.2056,1.2057,1.2064,1.2065,1.2066,1.2067,1.2074,1.2075,1.2071,1.208,1.2081,1.2081,1.2079,1.2085,1.2085,1.2082,1.2082,1.2082,1.2072,0,0,0,0,0,0,1.205,1.2051,1.205,1.2056,1.2057,1.2057,1.2064,1.2066,1.2067,1.2068,1.2074,1.2075,1.208,1.2081,1.2081,1.2079,1.2086,1.2083,1.2082,1.2082,1.2073,1.2072,1.2071,0,0,0,0,0,1.205,1.2047,1.205,1.205,1.2055,1.2057,1.2058,1.2064,1.2067,1.2066,1.207,1.2075,1.2079,1.2081,1.2081,1.2079,1.2083,1.2082,1.2082,1.2073,1.2072,1.2071,0,0,0,0,0,0,1.204,1.2047,1.2051,1.2049,1.2053,1.2059,1.2058,1.2062,1.2065,1.2065,1.2072,1.2074,1.2073,1.2076,1.2078,1.2077,1.2082,1.2081,1.2075,1.2074,1.2073,1.2072,1.2086,0,0,0,0,0,1.2037,1.2038,1.2045,1.2043,1.2044,1.2051,1.2052,1.2056,1.206,1.2061,1.2066,1.2069,1.2072,1.2073,1.2075,1.2074,1.2075,1.2073,1.2071,1.2071,1.207,1.207,1.2069,1.208,1.208,1.208,0,0,1.2032,1.2036,1.2036,1.2041,1.2044,1.2045,1.2052,1.2052,1.2053,1.2061,1.2062,1.2066,1.207,1.207,1.207,1.2072,1.2068,1.207,1.2069,1.2069,1.207,1.2069,1.2068,1.208,1.208,1.208,0,0,1.2023,1.2026,1.2025,1.2028,1.2033,1.2038,1.2038,1.2044,1.2046,1.2047,1.2053,1.2055,1.2058,1.2062,1.2064,1.2057,1.2062,1.2058,1.2052,1.2052,1.2052,1.2051,1.2049,1.2048,1.2058,1.2058,1.2058,0,1.2016,1.2018,1.2024,1.2025,1.2027,1.2034,1.2033,1.2036,1.2042,1.2043,1.2046,1.2051,1.2054,1.2055,1.2054,1.2055,1.2056,1.2057,1.2051,1.2051,1.205,1.2048,1.2047,1.2057,1.2057,1.2057,1.2057,0,1.2009,1.201,1.2009,1.2014,1.2016,1.2016,1.2022,1.2024,1.2028,1.2032,1.2034,1.2038,1.2042,1.2043,1.2047,1.2044,1.2046,1.205,1.2055,1.2048,1.2047,1.2046,1.2056,1.2057,1.2057,1.2057,0,0,1.1993,1.2003,1.2002,1.2005,1.2011,1.2012,1.2013,1.2017,1.2018,1.2022,1.2022,1.2026,1.203,1.2032,1.2037,1.2037,1.2032,1.2041,1.2041,1.2039,1.203,1.2027,1.2026,1.2035,1.2035,1.2035,1.203,0,1.1986,1.1987,1.1993,1.1993,1.1994,1.2002,1.2003,1.2007,1.2011,1.2013,1.2018,1.202,1.2025,1.2027,1.2027,1.2033,1.203,1.2033,1.2037,1.2037,1.2035,1.2026,1.2022,1.2017,1.203,1.2029,1.2029,0,1.1977,1.198,1.198,1.1987,1.1988,1.1988,1.1993,1.1994,1.2,1.2003,1.2006,1.2012,1.2013,1.2018,1.2021,1.2022,1.2024,1.2027,1.2027,1.2028,1.2032,1.2026,1.2015,1.2015,1.2028,1.2029,1.2029,0,1.1966,1.197,1.1971,1.1973,1.1981,1.1981,1.1985,1.199,1.1992,1.1996,1.1998,1.2002,1.2005,1.2008,1.2015,1.2017,1.2017,1.2022,1.202,1.2019,1.2019,1.2019,1.2009,1.202,1.202,1.202,1.202,0,1.1956,1.1956,1.1966,1.1966,1.1966,1.1974,1.1974,1.1978,1.1983,1.1985,1.1992,1.1993,1.2002,1.2005,1.201,1.2012,1.2013,1.2016,1.2017,1.2015,1.2015,1.2016,1.2017,1.202,1.202,1.202,1.202,0,1.1944,1.195,1.1952,1.196,1.1962,1.1961,1.1968,1.1969,1.1974,1.1976,1.1977,1.1985,1.1989,1.1996,1.2002,1.2005,1.2006,1.2008,1.2004,1.2005,1.2002,1.2003,1.1993,1.1992,1.2004,1.2004,1.2004,0,1.1937,1.1937,1.1945,1.1947,1.195,1.1953,1.1955,1.1963,1.1965,1.1972,1.1972,1.1976,1.198,1.1986,1.1992,1.1997,1.1999,1.1996,1.2,1.1998,1.1999,1.1999,1.1999,1.1994,1.1994,1.1994,1.1994,0,1.1925,1.1929,1.1932,1.1936,1.1939,1.1943,1.1947,1.1948,1.1957,1.196,1.1963,1.1966,1.1972,1.1977,1.1982,1.1986,1.1992,1.1993,1.1993,1.199,1.1988,1.1989,1.2001,1.1993,1.1993,1.1993,1.1993,1.1993,1.1916,1.1916,1.1922,1.1926,1.193,1.1934,1.1935,1.1941,1.1944,1.1949,1.1954,1.1958,1.1964,1.1972,1.1976,1.1979,1.1982,1.1981,1.1981,1.1981,1.198,1.1987,1.198,1.198,1.198,1.198,1.198,0,1.1904,1.1909,1.1912,1.1918,1.1921,1.1926,1.1931,1.1933,1.1936,1.1942,1.1945,1.195,1.1955,1.1962,1.1967,1.1968,1.1971,1.1969,1.1969,1.197,1.1978,1.1977,1.1967,1.1967,1.1967,1.1967,1.1967,1.1967,1.1899,1.19,1.1904,1.1908,1.1913,1.1916,1.1919,1.1923,1.1927,1.1932,1.1936,1.1941,1.1947,1.1953,1.1957,1.196,1.1961,1.1959,1.1962,1.1968,1.197,1.1971,1.197,1.1959,1.1959,1.1954,1.1954,1.1954]},{"header":{"parameterUnit":"m.s-1","parameterCategory":1,"la1":30.2991,"la2":30.254,"lo1":-89.0895,"lo2":-89.0444,"dy":0.0017,"dx":0.0017,"nx":28,"ny":28,"refTime":"2025-02-24T03:00:00:Z","depth":0,"parameterNumber":3,"parameterNumberName":"V-component_of_WINDS"},"data":[0,0,0,0,0,0,0,0,0,0,0,0,0,0,0,0,0,0,0,0,0,0,0,0,0,0,0,0,0,0,0,0,0,0,0,0,0,0,0,0,0,0,0,0,0,0,0,0,0,0,0,0,0,0,0,0,0,0,-0.4638,-0.4639,0,-0.4674,-0.4675,-0.4675,-0.4684,-0.4684,-0.4684,-0.4684,-0.4721,-0.4722,-0.4723,0,0,0,0,0,0,0,0,0,0,0,0,0,-0.4581,-0.4582,-0.4638,-0.4639,-0.4639,-0.4674,-0.4675,-0.4675,-0.4684,-0.4684,-0.4684,-0.4684,-0.472,-0.4722,-0.4723,0,0,0,0,0,0,0,0,0,0,0,0,0,-0.461,-0.4582,-0.4638,-0.4648,-0.4649,-0.4674,-0.4675,-0.4675,-0.4684,-0.4684,-0.4684,-0.4683,-0.472,-0.4722,-0.4723,-0.4741,0,0,-0.4729,-0.473,0,0,0,0,0,0,0,0,-0.4609,-0.4612,-0.4646,-0.4647,-0.4649,-0.4674,-0.4668,-0.4697,-0.4685,-0.4671,-0.4684,-0.4683,-0.4706,-0.4709,-0.4716,-0.4743,-0.4744,-0.4729,-0.473,-0.4731,-0.4731,0,0,0,0,0,0,0,-0.4607,-0.4611,-0.4653,-0.4647,-0.4648,-0.4652,-0.4655,-0.4674,-0.469,-0.4672,-0.4673,-0.4677,-0.4706,-0.4714,-0.4717,-0.4745,-0.4729,-0.473,-0.4732,-0.4732,-0.4793,-0.4794,0,0,0,0,0,0,-0.4603,-0.4609,-0.4651,-0.4654,-0.4627,-0.4653,-0.4657,-0.4667,-0.469,-0.4693,-0.4677,-0.4677,-0.4711,-0.4715,-0.4718,-0.4744,-0.4731,-0.4732,-0.4734,-0.4793,-0.4793,-0.4794,0,0,0,0,0,0,-0.4601,-0.4606,-0.465,-0.4632,-0.4637,-0.4654,-0.4665,-0.4667,-0.4675,-0.4693,-0.4697,-0.4682,-0.4711,-0.4716,-0.4736,-0.4745,-0.4733,-0.4735,-0.4792,-0.4793,-0.4793,-0.4793,0,0,0,0,0,0,-0.46,-0.4606,-0.4612,-0.4632,-0.4638,-0.4666,-0.4665,-0.4668,-0.4679,-0.4679,-0.4699,-0.4702,-0.4711,-0.4734,-0.4738,-0.4747,-0.4736,-0.4791,-0.4792,-0.4793,-0.4792,-0.4794,-0.4795,0,0,0,0,0,-0.4597,-0.4609,-0.4612,-0.4617,-0.4646,-0.4667,-0.4671,-0.4681,-0.4679,-0.4686,-0.4699,-0.4701,-0.4743,-0.4736,-0.4741,-0.4751,-0.4791,-0.4792,-0.4793,-0.4792,-0.4793,-0.4795,0,0,0,0,0,0,-0.4588,-0.4612,-0.4615,-0.4633,-0.4648,-0.4668,-0.4677,-0.4682,-0.4698,-0.4697,-0.471,-0.4714,-0.4735,-0.4745,-0.4736,-0.4772,-0.4767,-0.4769,-0.4764,-0.4766,-0.4767,-0.4765,-0.4738,0,0,0,0,0,-0.4589,-0.4603,-0.4623,-0.4637,-0.4644,-0.466,-0.4669,-0.4676,-0.4692,-0.4698,-0.4712,-0.4728,-0.4745,-0.4756,-0.4772,-0.4794,-0.48,-0.4803,-0.4805,-0.4806,-0.4808,-0.4824,-0.4827,-0.4798,-0.4798,-0.4798,0,0,-0.4589,-0.4604,-0.4612,-0.4636,-0.4648,-0.4664,-0.4665,-0.4681,-0.4694,-0.4701,-0.4722,-0.4733,-0.4752,-0.4774,-0.4784,-0.4783,-0.4818,-0.4807,-0.4808,-0.481,-0.4826,-0.4829,-0.4831,-0.4799,-0.4798,-0.4798,0,0,-0.4598,-0.461,-0.4625,-0.4638,-0.4657,-0.4668,-0.4672,-0.4692,-0.47,-0.4722,-0.4729,-0.4745,-0.4772,-0.4787,-0.4798,-0.4818,-0.4822,-0.4822,-0.4829,-0.4845,-0.4848,-0.485,-0.486,-0.4863,-0.4824,-0.4824,-0.4824,0,-0.4596,-0.462,-0.4631,-0.4649,-0.466,-0.4669,-0.4686,-0.4698,-0.4722,-0.473,-0.4728,-0.4767,-0.478,-0.4808,-0.4813,-0.482,-0.4827,-0.482,-0.4846,-0.4849,-0.4851,-0.4861,-0.4864,-0.4825,-0.4825,-0.4825,-0.4825,0,-0.4619,-0.4635,-0.4645,-0.467,-0.4682,-0.4699,-0.4715,-0.4727,-0.4734,-0.4745,-0.4769,-0.4786,-0.4808,-0.4815,-0.482,-0.4845,-0.4844,-0.4843,-0.484,-0.4854,-0.4863,-0.4867,-0.4825,-0.4825,-0.4825,-0.4825,0,0,-0.4621,-0.4654,-0.4658,-0.4671,-0.4695,-0.4708,-0.4727,-0.4749,-0.4761,-0.4778,-0.4796,-0.4821,-0.4823,-0.4836,-0.4844,-0.4857,-0.4877,-0.4857,-0.4857,-0.4862,-0.4909,-0.491,-0.4914,-0.488,-0.488,-0.4881,-0.4908,0,-0.4635,-0.4668,-0.4681,-0.4709,-0.4726,-0.4737,-0.4754,-0.4771,-0.4784,-0.4802,-0.4815,-0.4835,-0.4834,-0.4842,-0.4856,-0.4871,-0.4887,-0.4869,-0.4899,-0.49,-0.4896,-0.4918,-0.4919,-0.4943,-0.4912,-0.4912,-0.4913,0,-0.4655,-0.4674,-0.4704,-0.473,-0.4738,-0.4752,-0.4776,-0.4792,-0.4814,-0.4823,-0.4839,-0.4847,-0.487,-0.4865,-0.4898,-0.4886,-0.4899,-0.4909,-0.491,-0.4914,-0.4908,-0.4926,-0.4951,-0.4956,-0.4918,-0.4918,-0.4917,0,-0.4657,-0.469,-0.4714,-0.4724,-0.4754,-0.4765,-0.4778,-0.4799,-0.4813,-0.4834,-0.4844,-0.4867,-0.488,-0.4899,-0.4915,-0.4909,-0.4948,-0.4943,-0.4958,-0.4958,-0.4966,-0.4966,-0.4996,-0.4971,-0.4971,-0.4971,-0.4971,0,-0.4672,-0.4691,-0.4716,-0.473,-0.4752,-0.4768,-0.479,-0.4804,-0.4824,-0.4843,-0.4853,-0.4871,-0.489,-0.4911,-0.4923,-0.4951,-0.4956,-0.4966,-0.4969,-0.4966,-0.4965,-0.4976,-0.4975,-0.4972,-0.4972,-0.4972,-0.4971,0,-0.4678,-0.4695,-0.4722,-0.4749,-0.4757,-0.4772,-0.4797,-0.4813,-0.4827,-0.4851,-0.4858,-0.488,-0.4906,-0.4924,-0.4956,-0.4965,-0.4996,-0.4998,-0.4989,-0.4991,-0.5007,-0.5006,-0.5047,-0.5054,-0.5022,-0.5022,-0.5022,0,-0.4687,-0.4702,-0.4732,-0.4746,-0.476,-0.4781,-0.4796,-0.4814,-0.483,-0.4858,-0.4872,-0.4898,-0.4921,-0.4962,-0.4983,-0.5009,-0.5013,-0.5026,-0.5017,-0.5015,-0.5017,-0.5017,-0.5021,-0.5027,-0.5028,-0.5028,-0.5028,0,-0.4702,-0.4711,-0.4732,-0.4758,-0.4777,-0.4798,-0.4819,-0.483,-0.4851,-0.4869,-0.4897,-0.4914,-0.495,-0.4978,-0.5007,-0.5022,-0.503,-0.5031,-0.5036,-0.5034,-0.503,-0.5036,-0.4996,-0.503,-0.503,-0.5029,-0.5029,-0.5029,-0.4711,-0.4727,-0.4752,-0.4777,-0.4795,-0.4816,-0.4834,-0.4851,-0.4874,-0.4905,-0.4914,-0.4944,-0.497,-0.501,-0.5026,-0.5051,-0.505,-0.5057,-0.5059,-0.5061,-0.5063,-0.5024,-0.5056,-0.5056,-0.5056,-0.5056,-0.5056,0,-0.4729,-0.4747,-0.477,-0.4801,-0.4821,-0.4827,-0.4853,-0.487,-0.4896,-0.4919,-0.4942,-0.4977,-0.5005,-0.5029,-0.5059,-0.5075,-0.508,-0.5082,-0.5082,-0.5087,-0.5061,-0.5055,-0.5078,-0.5078,-0.5078,-0.5078,-0.5078,-0.5078,-0.4741,-0.4769,-0.4782,-0.4821,-0.4838,-0.4868,-0.4882,-0.4903,-0.4922,-0.496,-0.4984,-0.5,-0.5025,-0.5058,-0.5086,-0.5092,-0.5104,-0.5107,-0.5115,-0.509,-0.5088,-0.5085,-0.508,-0.5109,-0.5109,-0.5139,-0.5139,-0.514]}]]